DW4669 Weather Reports


Display with metric or nautical units.
time (UTC)temp
F
wind
direction
speed
MPH
gust
MPH
rain 1hr
in
rain 24hr
in
rain mn
in
humidity
%
barometer
mb
20260505204532 82 291 3.0 11.0 0.00 0.06 0.06 38 1005.2
20260505204010 82 293 5.0 11.0 0.00 0.06 0.06 37 1005.3
20260505203511 82 261 3.0 15.0 0.00 0.06 0.06 36 1005.2
20260505203031 82 263 2.0 15.0 0.00 0.06 0.06 37 1005.3
20260505202513 82 202 3.0 14.0 0.00 0.06 0.06 36 1005.5
20260505202012 82 292 3.0 14.0 0.00 0.06 0.06 39 1005.6
20260505201530 82 348 2.0 15.0 0.00 0.06 0.06 38 1005.7
20260505201027 82 338 7.0 15.0 0.00 0.06 0.06 36 1005.9
20260505200515 82 271 3.0 11.0 0.00 0.06 0.06 38 1005.7
20260505200035 82 236 3.0 9.0 0.00 0.06 0.06 39 1006.0
20260505195511 83 229 1.0 14.0 0.00 0.06 0.06 41 1005.9
20260505195015 83 340 1.0 14.0 0.00 0.06 0.06 42 1005.7
20260505194528 83 309 1.0 10.0 0.00 0.06 0.06 41 1005.8
20260505194012 82 155 3.0 10.0 0.00 0.06 0.06 39 1005.8
20260505193510 83 236 3.0 12.0 0.00 0.06 0.06 40 1005.9
20260505193031 83 244 5.0 12.0 0.00 0.06 0.06 38 1006.0
20260505192510 82 191 2.0 16.0 0.00 0.06 0.06 41 1006.1
20260505192014 82 244 3.0 16.0 0.00 0.06 0.06 38 1006.1
20260505191535 82 154 4.0 13.0 0.00 0.06 0.06 39 1006.3
20260505191014 82 182 3.0 12.0 0.00 0.06 0.06 39 1006.2
20260505190518 82 155 2.0 16.0 0.00 0.06 0.06 40 1006.3
20260505190032 81 352 3.0 16.0 0.00 0.06 0.06 39 1006.6
20260505185515 81 180 5.0 12.0 0.00 0.06 0.06 42 1006.6
20260505185011 81 237 4.0 11.0 0.00 0.06 0.06 42 1006.5
20260505184532 82 302 4.0 11.0 0.00 0.06 0.06 41 1006.7
20260505184013 82 201 2.0 13.0 0.00 0.06 0.06 45 1006.6
20260505183511 81 301 2.0 13.0 0.00 0.06 0.06 43 1006.9
20260505183036 81 188 3.0 14.0 0.00 0.06 0.06 44 1006.9
20260505182511 81 161 3.0 14.0 0.00 0.06 0.06 43 1007.2
20260505182012 80 261 4.0 12.0 0.00 0.06 0.06 45 1007.2
20260505181529 80 312 4.0 15.0 0.00 0.06 0.06 46 1007.1
20260505181013 80 243 6.0 15.0 0.00 0.06 0.06 47 1007.3
20260505180510 80 227 3.0 13.0 0.00 0.06 0.06 46 1007.3
20260505180028 80 317 8.0 16.0 0.00 0.06 0.06 46 1007.4
20260505175513 80 311 4.0 16.0 0.00 0.06 0.06 46 1007.2
20260505175011 80 330 6.0 14.0 0.00 0.06 0.06 44 1007.2
20260505174530 80 321 5.0 13.0 0.00 0.06 0.06 45 1007.1
20260505174012 80 298 6.0 12.0 0.00 0.06 0.06 45 1007.3
20260505173517 79 348 3.0 12.0 0.00 0.06 0.06 47 1007.4
20260505173028 79 243 4.0 12.0 0.00 0.06 0.06 46 1007.4
20260505172513 79 346 4.0 12.0 0.00 0.06 0.06 48 1007.6
20260505172015 79 290 4.0 12.0 0.00 0.06 0.06 47 1007.7
20260505171531 79 211 2.0 12.0 0.00 0.06 0.06 48 1007.6
20260505171016 79 184 2.0 10.0 0.00 0.06 0.06 50 1007.6
20260505170513 79 0 4.0 14.0 0.00 0.06 0.06 48 1007.6
20260505170033 79 207 1.0 14.0 0.00 0.06 0.06 51 1007.6
20260505165510 79 121 3.0 11.0 0.00 0.06 0.06 50 1007.8
20260505165010 79 268 2.0 9.0 0.00 0.06 0.06 48 1007.8
20260505164531 79 224 3.0 11.0 0.00 0.06 0.06 49 1008.0
20260505164012 78 244 3.0 11.0 0.00 0.06 0.06 49 1008.1
20260505163515 78 0 1.0 9.0 0.00 0.06 0.06 52 1008.2
20260505163030 78 247 1.0 9.0 0.00 0.06 0.06 53 1008.3
20260505162521 78 240 2.0 9.0 0.00 0.06 0.06 48 1008.5
20260505162012 77 229 1.0 11.0 0.00 0.06 0.06 53 1008.5
20260505161539 77 190 2.0 11.0 0.00 0.06 0.06 51 1008.5
20260505161014 77 304 3.0 11.0 0.00 0.06 0.06 51 1008.6
20260505160518 76 299 5.0 11.0 0.00 0.06 0.06 49 1008.7
20260505153029 75 72 2.0 10.0 0.00 0.06 0.06 55 1009.1
20260505152510 75 0 4.0 11.0 0.00 0.06 0.06 53 1009.2
20260505152012 75 338 4.0 11.0 0.00 0.06 0.06 55 1009.1
20260505151531 74 217 1.0 10.0 0.00 0.06 0.06 56 1009.3
20260505151013 74 217 4.0 10.0 0.00 0.06 0.06 56 1009.4
20260505150513 74 285 3.0 10.0 0.00 0.06 0.06 57 1009.3
20260505140512 72 88 3.0 14.0 0.00 0.06 0.06 63 1009.5
20260505125013 60 331 0.0 6.0 0.00 0.06 0.06 87 1009.2
20260505124530 60 335 1.0 6.0 0.00 0.06 0.06 88 1009.2
20260505124014 59 303 1.0 3.0 0.00 0.06 0.06 89 1009.0
20260505123514 58 0 0.0 2.0 0.00 0.06 0.06 89 1008.9
20260505123033 57 273 0.0 3.0 0.00 0.06 0.06 89 1008.9
20260505122511 57 0 0.0 3.0 0.00 0.06 0.06 91 1008.9
20260505122014 56 0 0.0 1.0 0.00 0.06 0.06 92 1008.9
20260505121534 56 0 0.0 1.0 0.00 0.06 0.06 92 1008.9
20260505121011 55 0 0.0 1.0 0.00 0.06 0.06 92 1008.9
20260505120517 55 0 0.0 1.0 0.00 0.06 0.06 92 1009.0
20260505120030 55 0 0.0 1.0 0.01 0.06 0.06 94 1009.0
20260505115513 55 0 0.0 0.0 0.01 0.06 0.06 94 1009.0
20260505115011 55 0 0.0 0.0 0.01 0.06 0.06 93 1008.9
20260505114533 55 0 0.0 0.0 0.01 0.06 0.06 93 1009.1
20260505114014 55 0 0.0 0.0 0.01 0.06 0.06 93 1009.2
20260505113511 55 0 0.0 0.0 0.02 0.06 0.06 93 1009.1
20260505113029 55 0 0.0 0.0 0.02 0.06 0.06 92 1009.3
20260505112513 55 0 0.0 0.0 0.05 0.06 0.06 92 1009.3
20260505112014 54 0 0.0 0.0 0.06 0.06 0.06 92 1009.2
20260505111529 54 0 0.0 0.0 0.06 0.06 0.06 92 1009.0
20260505111013 54 0 0.0 2.0 0.06 0.06 0.06 91 1009.0
20260505110514 54 0 0.0 2.0 0.06 0.06 0.06 91 1009.1
20260505102017 57 200 0.0 6.0 0.00 0.00 0.00 71 1009.4
20260505101534 57 0 1.0 6.0 0.00 0.00 0.00 71 1009.3
20260505101011 57 0 0.0 3.0 0.00 0.00 0.00 71 1009.4
20260505100513 57 0 0.0 3.0 0.00 0.00 0.00 71 1009.2
20260505100033 57 257 0.0 1.0 0.00 0.00 0.00 71 1009.0
20260505095513 57 0 0.0 4.0 0.00 0.00 0.00 71 1009.3
20260505095014 57 0 0.0 4.0 0.00 0.00 0.00 71 1009.0
20260505094529 56 0 0.0 3.0 0.00 0.00 0.00 72 1008.8
20260505094010 56 0 0.0 3.0 0.00 0.00 0.00 72 1008.7
20260505093514 55 0 0.0 3.0 0.00 0.00 0.00 73 1008.8
20260505093028 55 0 0.0 5.0 0.00 0.00 0.00 73 1008.5
20260505092514 55 0 0.0 5.0 0.00 0.00 0.00 74 1008.6
20260505092013 55 0 0.0 4.0 0.00 0.00 0.00 75 1008.4
20260505091533 54 0 0.0 4.0 0.00 0.00 0.00 75 1008.3
20260505091010 54 0 0.0 1.0 0.00 0.00 0.00 75 1008.2
20260505090513 55 0 0.0 1.0 0.00 0.00 0.00 74 1008.1
20260505090040 55 0 0.0 4.0 0.00 0.00 0.00 73 1008.2
20260505085513 56 0 0.0 5.0 0.00 0.00 0.00 73 1008.2
20260505085012 55 0 1.0 5.0 0.00 0.00 0.00 73 1008.2
20260505084530 54 0 0.0 2.0 0.00 0.00 0.00 75 1008.1
20260505084011 53 0 0.0 2.0 0.00 0.00 0.00 77 1008.0
20260505083516 52 0 0.0 2.0 0.00 0.00 0.00 79 1008.2
20260505083028 52 0 0.0 2.0 0.00 0.00 0.00 80 1008.3
20260505082516 51 0 0.0 0.0 0.00 0.00 0.00 80 1008.2
20260505082011 51 0 0.0 2.0 0.00 0.00 0.00 80 1008.3
20260505081528 51 0 0.0 2.0 0.00 0.00 0.00 80 1008.3
20260505081018 51 0 0.0 2.0 0.00 0.00 0.00 79 1008.3
20260505080512 51 0 0.0 2.0 0.00 0.00 0.00 78 1008.3
20260505080040 52 207 0.0 2.0 0.00 0.00 0.00 79 1008.3
20260505075511 51 0 0.0 2.0 0.00 0.00 0.00 81 1008.3
20260505075010 51 0 0.0 1.0 0.00 0.00 0.00 81 1008.3
20260505074529 50 0 0.0 0.0 0.00 0.00 0.00 80 1008.4
20260505074010 50 0 0.0 0.0 0.00 0.00 0.00 79 1008.5
20260505073512 51 0 0.0 2.0 0.00 0.00 0.00 78 1008.5
20260505073034 51 0 0.0 2.0 0.00 0.00 0.00 76 1008.4
20260505072513 52 208 0.0 2.0 0.00 0.00 0.00 76 1008.5
20260505072013 52 0 0.0 0.0 0.00 0.00 0.00 77 1008.3
20260505071543 52 0 0.0 0.0 0.00 0.00 0.00 77 1008.3
20260505071011 52 0 0.0 0.0 0.00 0.00 0.00 77 1008.3
20260505070513 52 0 0.0 0.0 0.00 0.00 0.00 74 1008.3
20260505070028 53 0 0.0 0.0 0.00 0.00 0.00 74 1008.4
20260505065512 54 0 0.0 0.0 0.00 0.00 0.00 74 1008.4
20260505065013 54 0 0.0 0.0 0.00 0.00 0.00 72 1008.4
20260505064534 55 0 0.0 0.0 0.00 0.00 0.00 70 1008.5
20260505064013 55 0 0.0 0.0 0.00 0.00 0.00 69 1008.4
20260505063510 56 0 0.0 1.0 0.00 0.00 0.00 68 1008.4
20260505063028 56 0 0.0 1.0 0.00 0.00 0.00 67 1008.3
20260505062516 56 0 0.0 1.0 0.00 0.00 0.00 67 1008.5
20260505062013 56 0 0.0 1.0 0.00 0.00 0.00 66 1008.5
20260505061533 57 0 0.0 1.0 0.00 0.00 0.00 65 1008.5
20260505061013 57 0 0.0 1.0 0.00 0.00 0.00 64 1008.4
20260505060511 57 0 0.0 1.0 0.00 0.00 0.00 65 1008.5
20260505060035 58 0 0.0 4.0 0.00 0.00 0.00 63 1008.6
20260505055515 58 0 0.0 4.0 0.00 0.00 0.00 62 1008.6
20260505055014 57 0 0.0 3.0 0.00 0.00 0.00 62 1008.5
20260505054528 57 0 0.0 1.0 0.00 0.00 0.00 63 1008.7
20260505054015 57 0 0.0 3.0 0.00 0.00 0.00 63 1008.6
20260505053514 57 0 0.0 3.0 0.00 0.00 0.00 63 1008.6
20260505053028 58 0 0.0 4.0 0.00 0.00 0.00 63 1008.6
20260505052512 58 0 0.0 4.0 0.00 0.00 0.00 62 1008.7
20260505052014 58 202 0.0 3.0 0.00 0.00 0.00 61 1008.7
20260505051528 59 0 0.0 5.0 0.00 0.00 0.00 59 1008.8
20260505051013 59 0 0.0 5.0 0.00 0.00 0.00 58 1008.8
20260505050511 59 238 0.0 5.0 0.00 0.00 0.00 59 1008.8
20260505041528 61 0 0.0 6.0 0.00 0.00 0.00 55 1008.9
20260505041012 60 190 0.0 6.0 0.00 0.00 0.00 55 1008.9
20260505040512 60 0 0.0 5.0 0.00 0.00 0.00 55 1008.9
20260505040031 60 0 0.0 5.0 0.00 0.00 0.00 56 1008.9
20260505035514 60 205 0.0 5.0 0.00 0.00 0.00 57 1008.8
20260505035017 60 207 0.0 5.0 0.00 0.00 0.00 55 1008.8
20260505034530 61 0 0.0 6.0 0.00 0.00 0.00 56 1008.8
20260505034014 61 0 0.0 6.0 0.00 0.00 0.00 54 1008.8
20260505033516 61 0 0.0 3.0 0.00 0.00 0.00 56 1008.8
20260505033037 60 0 0.0 8.0 0.00 0.00 0.00 55 1009.0
20260505032513 60 188 1.0 8.0 0.00 0.00 0.00 56 1008.9
20260505032013 59 0 0.0 2.0 0.00 0.00 0.00 59 1009.0
20260505031530 59 0 0.0 2.0 0.00 0.00 0.00 60 1008.9
20260505031012 59 0 0.0 2.0 0.00 0.00 0.00 59 1009.0
20260505030514 59 0 0.0 5.0 0.00 0.00 0.00 57 1009.0
20260505030028 59 0 0.0 5.0 0.00 0.00 0.00 59 1009.0
20260505025514 58 0 0.0 2.0 0.00 0.00 0.00 60 1008.9
20260505025011 58 0 0.0 1.0 0.00 0.00 0.00 61 1008.9
20260505024544 58 0 0.0 1.0 0.00 0.00 0.00 62 1008.9
20260505024014 58 0 0.0 1.0 0.00 0.00 0.00 62 1009.0
20260505023514 59 0 0.0 1.0 0.00 0.00 0.00 59 1008.9
20260505023039 59 0 0.0 1.0 0.00 0.00 0.00 60 1009.0
20260505022511 60 0 0.0 1.0 0.00 0.00 0.00 59 1009.1
20260505022012 60 0 0.0 4.0 0.00 0.00 0.00 58 1009.2
20260505021530 60 0 0.0 5.0 0.00 0.00 0.00 58 1009.2
20260505021016 60 0 0.0 6.0 0.00 0.00 0.00 58 1009.2
20260505020511 59 199 1.0 6.0 0.00 0.00 0.00 56 1009.2
20260505020031 59 0 0.0 3.0 0.00 0.00 0.00 57 1009.2
20260505015510 59 187 0.0 1.0 0.00 0.00 0.00 58 1009.2
20260505015014 59 0 0.0 2.0 0.00 0.00 0.00 59 1009.2
20260505014536 59 0 0.0 2.0 0.00 0.00 0.00 57 1009.1
20260505014014 59 0 0.0 0.0 0.00 0.00 0.00 58 1009.0
20260505013511 59 0 0.0 0.0 0.00 0.00 0.00 60 1009.0
20260505013028 59 0 0.0 1.0 0.00 0.00 0.00 57 1009.0
20260505012511 60 0 0.0 1.0 0.00 0.00 0.00 57 1008.9
20260505012011 60 219 0.0 2.0 0.00 0.00 0.00 57 1008.9
20260505011527 60 0 0.0 2.0 0.00 0.00 0.00 59 1008.8
20260505011014 60 0 0.0 0.0 0.00 0.00 0.00 58 1008.8
20260505010515 60 0 0.0 3.0 0.00 0.00 0.00 58 1008.7
20260505010027 60 0 0.0 3.0 0.00 0.00 0.00 55 1008.6
20260505005510 60 0 0.0 0.0 0.00 0.00 0.00 57 1008.4
20260505005012 60 0 0.0 0.0 0.00 0.00 0.00 56 1008.4
20260505004530 60 0 0.0 1.0 0.00 0.00 0.00 54 1008.4
20260505004011 61 0 0.0 1.0 0.00 0.00 0.00 56 1008.3
20260505003510 61 229 0.0 1.0 0.00 0.00 0.00 54 1008.2
20260505003029 61 0 0.0 1.0 0.00 0.00 0.00 54 1008.2
20260505002512 62 0 0.0 0.0 0.00 0.00 0.00 56 1008.1
20260505002010 62 0 0.0 0.0 0.00 0.00 0.00 52 1008.0
20260505001529 63 0 0.0 0.0 0.00 0.00 0.00 52 1007.9
20260505001015 64 0 0.0 0.0 0.00 0.00 0.00 49 1007.9
20260505000513 65 0 0.0 1.0 0.00 0.00 0.00 50 1007.7
20260505000032 66 0 0.0 1.0 0.00 0.00 0.00 46 1007.6
20260504235514 66 0 0.0 6.0 0.00 0.00 0.00 46 1007.6
20260504235011 67 0 0.0 6.0 0.00 0.00 0.00 46 1007.6
20260504234528 67 0 0.0 4.0 0.00 0.00 0.00 43 1007.5
20260504234014 67 0 0.0 4.0 0.00 0.00 0.00 44 1007.6
20260504233511 68 259 0.0 3.0 0.00 0.00 0.00 43 1007.5
20260504233028 68 0 0.0 8.0 0.00 0.00 0.00 42 1007.4
20260504232511 68 0 1.0 8.0 0.00 0.00 0.00 41 1007.4
20260504232011 69 0 1.0 5.0 0.00 0.00 0.00 41 1007.2
20260504231527 69 0 1.0 8.0 0.00 0.00 0.00 41 1007.2
20260504231011 69 0 0.0 9.0 0.00 0.00 0.00 41 1007.2
20260504230513 70 0 1.0 9.0 0.00 0.00 0.00 40 1007.2
20260504230031 70 0 2.0 9.0 0.00 0.00 0.00 42 1007.1
20260504225510 70 0 0.0 10.0 0.00 0.00 0.00 43 1007.1
20260504225013 70 0 2.0 10.0 0.00 0.00 0.00 40 1007.1
20260504224535 71 267 1.0 8.0 0.00 0.00 0.00 40 1007.1
20260504224012 71 179 2.0 8.0 0.00 0.00 0.00 38 1007.1
20260504223513 71 216 1.0 8.0 0.00 0.00 0.00 40 1007.1
20260504223030 71 0 1.0 8.0 0.00 0.00 0.00 41 1007.1
20260504222511 71 279 0.0 8.0 0.00 0.00 0.00 40 1007.1
20260504222013 71 176 1.0 8.0 0.00 0.00 0.00 42 1007.1
20260504221530 71 82 2.0 9.0 0.00 0.00 0.00 40 1007.0
20260504221012 71 0 1.0 10.0 0.00 0.00 0.00 40 1007.1
20260504220515 71 163 2.0 12.0 0.00 0.00 0.00 39 1007.2
20260504220030 72 160 2.0 12.0 0.00 0.00 0.00 38 1007.3
20260504215513 72 192 2.0 11.0 0.00 0.00 0.00 38 1007.3
20260504215011 72 309 5.0 11.0 0.00 0.00 0.00 37 1007.4
20260504214530 72 9 2.0 9.0 0.00 0.00 0.00 39 1007.4
20260504214014 72 202 2.0 8.0 0.00 0.00 0.00 40 1007.5
20260504213514 72 285 1.0 8.0 0.00 0.00 0.00 39 1007.4
20260504213028 73 271 2.0 8.0 0.00 0.00 0.00 38 1007.4
20260504212515 73 290 2.0 7.0 0.00 0.00 0.00 40 1007.4
20260504212015 73 207 2.0 8.0 0.00 0.00 0.00 39 1007.6
20260504211528 72 243 2.0 10.0 0.00 0.00 0.00 40 1007.7
20260504211014 72 0 1.0 10.0 0.00 0.00 0.00 39 1007.6
20260504210512 72 0 3.0 13.0 0.00 0.00 0.00 38 1007.6
20260504210037 72 46 3.0 13.0 0.00 0.00 0.00 40 1007.6
20260504205511 72 205 3.0 11.0 0.00 0.00 0.00 39 1007.6
20260504205010 72 0 3.0 11.0 0.00 0.00 0.00 36 1007.7